Home   Weather   Smara   Past weeks

Past Weather in Smara, Western Sahara — Yesterday and Last 2 Weeks

Now
57 °F

Passing clouds.


Feels Like: 56 °F
Forecast: N/A
Wind: 6 mph from North

Location: Laayoune/Hassan Isl

Current Time: Jan 20, 2017 at 8:28:46 pm

Latest Report: Jan 20, 2017 at 8:00 pm


Visibility: N/A

Pressure: 30.15 "Hg

Humidity: 63%

Dew Point: 45 °F

Location of SmaraLocation

Past Weather in Smara — Graph

°F

Smara Temperature Yesterday

Maximum temperature yesterday: 68 °F (at 1:00 pm)
Minimum temperature yesterday: 52 °F (at 1:00 am)
Average temperature yesterday: 60 °F

High & Low Weather Summary for the Past Weeks

 TemperatureHumidityPressure
High79 °F (Jan 6, 4:00 pm)94% (Jan 10, 12:00 am)30.30 "Hg (Jan 10, 12:00 am)
Low48 °F (Jan 6, 7:00 am)4% (Jan 6, 5:00 pm)30.01 "Hg (Jan 6, 4:00 pm)
Average62 °F46%30.13 "Hg
* Reported Jan 5 7:00 pm — Jan 20 7:00 pm, Smara, Weather by CustomWeather, © 2017

Note: Actual official high and low records may vary slightly from our data, if they occured in-between our weather recording intervals... More about our weather records

Advertising

Smara Weather History for the Previous 24 Hours

Scroll right to see more
 ConditionsComfort  
Time TempWeatherWind HumidityBarometerVisibility
7:00 pm
Fri, Jan 20
59 °FPassing clouds.8 mph59%30.15 "HgN/A
6:00 pm63 °FPassing clouds.13 mph52%30.12 "HgN/A
5:00 pm64 °FScattered clouds.15 mph49%30.12 "HgN/A
4:00 pm66 °FScattered clouds.15 mph43%30.12 "HgN/A
3:00 pm66 °FScattered clouds.18 mph43%30.12 "HgN/A
2:00 pm66 °FScattered clouds.16 mph43%30.12 "HgN/A
1:00 pm66 °FPassing clouds.14 mph40%30.15 "HgN/A
12:00 pm64 °FPassing clouds.14 mph46%30.18 "HgN/A
11:00 am63 °FSunny.13 mph49%30.18 "Hg10 mi
10:00 am61 °FSunny.13 mph52%30.15 "Hg10 mi
9:00 am57 °FSunny.12 mph63%30.12 "Hg10 mi
8:00 am54 °FClear.10 mph72%30.12 "Hg10 mi
7:00 am54 °FClear.5 mph77%30.09 "Hg10 mi
6:00 am55 °FClear.10 mph82%30.09 "Hg10 mi
5:00 am57 °FPassing clouds.12 mph82%30.09 "HgN/A
4:00 am57 °FPassing clouds.8 mph88%30.09 "HgN/A
3:00 am55 °FPassing clouds.6 mph94%30.09 "HgN/A
2:00 am54 °FPassing clouds.5 mph94%30.09 "HgN/A
1:00 am55 °FPassing clouds.3 mph94%30.09 "HgN/A
12:00 am57 °FPassing clouds.3 mph88%30.12 "HgN/A
11:00 pm
Thu, Jan 19
57 °FPassing clouds.5 mph82%30.12 "HgN/A
10:00 pm59 °FPassing clouds.6 mph77%30.12 "HgN/A
9:00 pm61 °FPassing clouds.13 mph77%30.12 "HgN/A
8:00 pm61 °FPassing clouds.10 mph68%30.09 "HgN/A
Weather by CustomWeather, © 2017

See weather overviewHow to use our weather pages